User: anonymous   Login
Location: Caltech
(34.1382°N, 118.1253°W)
Time: 22:52:03
(UTC-07:00)
Language:

Iridium 21 - Orbit

View from above orbital plane
View from above orbital plane
View from above satellite
View from above satellite

Ground track
Ground track

The orbit data is extracted from the following two-line orbital elements,

1 25778U 99032B   15241.29480860  .00000283  00000-0  94090-4 0  9991
2 25778 086.4000 139.0099 0002285 084.1972 037.7487 14.34219888853817
Epoch (UTC): 29 August 2015 07:04:31
Eccentricity: 0.0002285
inclination: 86.4000°
perigee height: 776 km
apogee height: 779 km
right ascension of ascending node: 139.0099°
argument of perigee: 84.1972°
revolutions per day: 14.34219888
mean anomaly at epoch: 37.7487°
orbit number at epoch: 85381

The dashed part of the orbit path shows where the satellite is in the earth's shadow,  

DLR